Regional Weather Roundup
Issued by NWS Cleveland, OH

Home | Current Version | Previous Version | Graphics & Text | Print | Product List | Glossary On
Versions: 1 2 3 4 5 6 7 8 9 10 11 12 13 14 15 16 17 18 19 20 21 22 23 24 25 26 27 28 29 30 31 32 33 34 35 36 37 38 39 40 41 42 43 44 45 46 47 48 49 50
000
ASUS41 KCLE 180800
RWRCLE
OHIO REGIONAL WEATHER ROUNDUP
NATIONAL WEATHER SERVICE WILMINGTON, OH
400 AM EDT THU SEP 18 2014

NOTE: "FAIR" INDICATES FEW OR NO CLOUDS BELOW 12,000 FEET WITH NO
SIGNIFICANT WEATHER AND/OR OBSTRUCTIONS TO VISIBILITY.

OHZ001>008-015>018-024>027-034-035-043-044-180900-
   NORTHWEST OHIO

CITY           SKY/WX    TMP DP  RH WIND       PRES   REMARKS
DEFIANCE       CLEAR     46  43  89 CALM      30.05R
FINDLAY        CLOUDY    51  48  89 CALM      30.03R
TOLEDO EXPRESS CLEAR     48  44  86 CALM      30.04R
TOLEDO METCALF CLEAR     50  43  77 CALM      30.05R
LIMA           CLEAR     47  44  90 CALM      30.04S
$$

OHZ009>014-019>023-028>033-038-089-180900-
   NORTHEAST OHIO

CITY           SKY/WX    TMP DP  RH WIND       PRES   REMARKS
CLE-HOPKINS    MOCLDY    50  48  93 SW3       30.04R
CLE-LAKEFRONT  MOCLDY    53  48  83 S8        30.00S
CUY CO. ARPT   NOT AVBL
LORAIN-ELYRIA  CLOUDY    53  49  86 SW3       30.03S
ASHTABULA      PTCLDY    44  43  96 CALM      30.02S FOG
AKRON-CANTON   MOCLDY    49  47  93 CALM      30.02S
WOOSTER        NOT AVBL
MANSFIELD      CLOUDY    50  49  96 CALM      30.03S
YOUNGSTOWN     PTCLDY    46  44  93 CALM      30.02R
$$

OHZ042-051>053-060>062-070>072-077>081-180900-
  SOUTHWEST OHIO

CITY           SKY/WX    TMP DP  RH WIND       PRES   REMARKS
CINC-COVINGTON CLEAR     52  49  89 N6        30.02F
CINC-LUNKEN    PTCLDY    47  47 100 E3        30.04S FOG
HAMILTON       CLEAR     47  46  97 CALM      30.04S FOG
DAYTON         NOT AVBL
WRIGHT-PAT AFB CLEAR     50  48  93 CALM      30.03S
DAYTON GENERAL CLEAR     51  48  89 NW3       30.03S
WILMINGTON     CLEAR     47  44  90 CALM      30.03S FOG
$$

OHZ036-037-039>041-045>050-054>059-063>069-073>076-082>088-180900-
  CENTRAL AND SOUTHEAST OHIO

CITY           SKY/WX    TMP DP  RH WIND       PRES   REMARKS
COLUMBUS       CLEAR     52  47  83 N3        30.02R
OSU AIRPORT    CLEAR     50  46  86 N3        30.02S
BOLTON FIELD   NOT AVBL
RICKENBACK AFB NOT AVBL
NEWARK         CLOUDY    49  47  93 CALM      30.02S
MARION         MOCLDY    50  47  89 CALM      30.03S
LANCASTER      CLOUDY    51  49  92 CALM      30.02S
ZANESVILLE     MOCLDY    50  48  93 NW3       30.01S
NEW PHILLY     CLOUDY    51  50  96 CALM      30.02S FOG
$$


USA.gov is the U.S. government's official web portal to all federal, state and local government web resources and services.